Location: Recife
(8.0585°S, 34.8848°W)
Time: 13:23:09
(UTC-03:00)

Tiros 1 despin weight - Pass Details

Date: 19 April 2026
Orbit: 555 x 591 km, 48.2° (Epoch: 14 May)

Event Time Altitude Azimuth Distance (km) Brightness Sun altitude
Rises 11:35:25 0° 239° (WSW) 2,732 ? 70.2°
Reaches altitude 10° 11:37:57 10° 252° (WSW) 1,832 ? 70.0°
Maximum altitude 11:41:25 25° 308° (NW) 1,125 ? 69.8°
Drops below altitude 10° 11:44:53 10° 5° (N) 1,822 ? 69.6°
Sets 11:47:25 0° 18° (NNE) 2,714 ? 69.3°
